map of BRC home
Great Circle Mapper logo
BRC - Airport
Location
City:  San Carlos de Bariloche, Río Negro, Argentina
ICAO / IATA:SAZS / BRC

Details
Type:Airport (Aerodrome, Airfield)
Use:Public/Civil
Latitude:41°09'04"S (-41.151171)
Longitude:71°09'27"W (-71.157541)
Datum:WGS 1984
Elevation:2776 ft (846 m)
Variation:6.88°E (WMM2015 magnetic declination)
-0.12° annual change
Runways:1
Longest:7703 × 157 ft (2348 × 48 m), paved

Time
Time Zone:UTC-3
Local Time:

Weather
METAR:SAZS 130000Z 30023G34KT 8000 -RA SCT030 SCT045 12/08 Q1007
TAF:SAZS 122300Z 1300/1324 29025G40KT 7000 VCSH SCT035 TX18/1319Z TN06/1309Z
BECMG 1304/1306 29015KT 9999 BKN035 BKN100

Related Locations
Nearby:
Farthest:RLK: 12381 mi / 19925 km
Bayannur [Bayannur Tianjitai Airport], 15, CN

Find:

   beyond  
but within

Other Information
Maps:
NOTAMs:
Links:
Sources:

  
flag of Argentina   

Sectional Chart

Flight Planning
at skyvector.com

Satellite Image

Google Maps Satellite view

 

Copyright © 2004-2016 Karl L. Swartz. All rights reserved.
The Great Circle Mapper name and logo are trademarks of the Great Circle Mapper.
All other trademarks mentioned herein belong to their respective owners.
Please see credits for attibutions and further copyright information.

  Follow gcmap on Facebook Follow gcmap on Twitter Follow gcmap on Google+ GCmap on LinkedIn

hCard Microformat

Geo Microformat